| time (UTC) | temp F | wind direction | speed knots | gust knots | rain 1hr in | rain 24hr in | rain mn in | humidity % | barometer mb |
| 20260506102101 | 69 | 28 | 0.0 | 0.9 | 0.00 | 0.12 | 0.00 | 52 | 1009.4 |
| 20260506101022 | 69 | 0.0 | 0.0 | 0.00 | 0.12 | 0.00 | 53 | 1009.4 | |
| 20260506100037 | 67 | 0.0 | 0.0 | 0.00 | 0.12 | 0.00 | 53 | 1009.3 | |
| 20260506095110 | 68 | 38 | 0.0 | 0.9 | 0.00 | 0.12 | 0.00 | 53 | 1009.3 |
| 20260506094029 | 68 | 41 | 0.0 | 0.9 | 0.00 | 0.12 | 0.00 | 54 | 1009.4 |
| 20260506093053 | 65 | 32 | 0.0 | 0.9 | 0.00 | 0.12 | 0.00 | 59 | 1009.3 |
| 20260506092118 | 64 | 0.0 | 0.0 | 0.00 | 0.12 | 0.00 | 60 | 1009.4 | |
| 20260506091038 | 65 | 73 | 0.0 | 0.9 | 0.00 | 0.12 | 0.00 | 61 | 1009.4 |
| 20260506085022 | 66 | 0.0 | 0.0 | 0.00 | 0.12 | 0.00 | 58 | 1009.5 | |
| 20260506084044 | 66 | 0.0 | 0.0 | 0.00 | 0.12 | 0.00 | 57 | 1009.7 | |
| 20260506083035 | 67 | 0.0 | 0.0 | 0.00 | 0.12 | 0.00 | 58 | 1009.8 | |
| 20260506082102 | 69 | 0.0 | 0.0 | 0.00 | 0.12 | 0.00 | 55 | 1009.6 | |
| 20260506081022 | 68 | 0.0 | 0.0 | 0.00 | 0.12 | 0.00 | 57 | 1009.6 | |
| 20260506073054 | 63 | 0.0 | 0.0 | 0.00 | 0.12 | 0.00 | 65 | 1010.0 | |
| 20260506072036 | 63 | 0.0 | 0.0 | 0.00 | 0.12 | 0.00 | 64 | 1010.1 | |
| 20260506071110 | 63 | 0.0 | 0.0 | 0.00 | 0.12 | 0.00 | 64 | 1010.2 | |
| 20260506062103 | 56 | 0.0 | 0.0 | 0.00 | 0.12 | 0.00 | 78 | 1010.3 | |
| 20260506061022 | 55 | 32 | 0.0 | 0.9 | 0.00 | 0.12 | 0.00 | 80 | 1010.3 |
| 20260506051038 | 50 | 0.0 | 0.0 | 0.00 | 0.12 | 0.00 | 93 | 1010.4 | |
| 20260506045022 | 49 | 0.0 | 0.0 | 0.00 | 0.12 | 0.00 | 93 | 1010.4 | |
| 20260506044046 | 49 | 0.0 | 0.0 | 0.00 | 0.12 | 0.00 | 93 | 1010.6 | |
| 20260506043110 | 49 | 0.0 | 0.0 | 0.00 | 0.12 | 0.00 | 93 | 1010.7 | |
| 20260506042029 | 49 | 0.0 | 0.0 | 0.00 | 0.12 | 0.00 | 93 | 1010.6 | |
| 20260506041054 | 49 | 0.0 | 0.0 | 0.00 | 0.12 | 0.00 | 93 | 1010.7 | |
| 20260506040118 | 49 | 0.0 | 0.0 | 0.00 | 0.12 | 0.00 | 93 | 1010.8 | |
| 20260506035039 | 49 | 0.0 | 0.0 | 0.00 | 0.12 | 0.00 | 92 | 1010.6 | |
| 20260506034118 | 49 | 0.0 | 0.0 | 0.00 | 0.12 | 0.00 | 92 | 1010.7 | |
| 20260506033034 | 49 | 0.0 | 0.0 | 0.00 | 0.12 | 0.00 | 92 | 1010.8 | |
| 20260506032102 | 49 | 0.0 | 0.0 | 0.00 | 0.12 | 0.00 | 92 | 1011.1 | |
| 20260506031022 | 49 | 0.0 | 0.0 | 0.00 | 0.12 | 0.00 | 92 | 1011.1 | |
| 20260506030047 | 49 | 0.0 | 0.0 | 0.00 | 0.12 | 0.00 | 92 | 1011.0 | |
| 20260506025022 | 49 | 0.0 | 0.0 | 0.00 | 0.12 | 0.00 | 92 | 1011.0 | |
| 20260506024046 | 49 | 0.0 | 0.0 | 0.00 | 0.12 | 0.00 | 92 | 1011.0 | |
| 20260506023111 | 50 | 0.0 | 0.0 | 0.00 | 0.12 | 0.00 | 92 | 1010.8 | |
| 20260506022030 | 50 | 0.0 | 0.0 | 0.00 | 0.12 | 0.00 | 92 | 1010.9 | |
| 20260506021055 | 50 | 0.0 | 0.0 | 0.00 | 0.12 | 0.00 | 91 | 1011.0 | |
| 20260506020118 | 50 | 0.0 | 0.0 | 0.00 | 0.12 | 0.00 | 91 | 1011.0 | |
| 20260506015040 | 51 | 0.0 | 0.0 | 0.00 | 0.12 | 0.00 | 91 | 1011.0 | |
| 20260506014103 | 51 | 0.0 | 0.0 | 0.00 | 0.12 | 0.00 | 91 | 1011.1 | |
| 20260506013023 | 51 | 0.0 | 0.0 | 0.00 | 0.12 | 0.00 | 91 | 1011.3 | |
| 20260506012043 | 51 | 0.0 | 0.0 | 0.00 | 0.12 | 0.00 | 90 | 1011.3 | |
| 20260506011022 | 51 | 0.0 | 0.0 | 0.00 | 0.12 | 0.00 | 89 | 1011.2 | |
| 20260506010046 | 51 | 0.0 | 0.0 | 0.00 | 0.12 | 0.00 | 87 | 1011.2 | |
| 20260506005111 | 51 | 0.0 | 0.0 | 0.00 | 0.12 | 0.00 | 86 | 1011.3 | |
| 20260506004031 | 52 | 0.0 | 0.0 | 0.00 | 0.12 | 0.00 | 84 | 1011.2 | |
| 20260506003055 | 53 | 0.0 | 0.0 | 0.00 | 0.12 | 0.00 | 83 | 1011.3 | |
| 20260506002030 | 54 | 0.0 | 0.0 | 0.00 | 0.12 | 0.00 | 83 | 1011.4 | |
| 20260506001055 | 54 | 0.0 | 0.0 | 0.00 | 0.12 | 0.00 | 82 | 1011.3 | |
| 20260506000118 | 54 | 0.0 | 0.0 | 0.00 | 0.12 | 0.00 | 85 | 1011.3 | |
| 20260505235038 | 54 | 0.0 | 0.0 | 0.00 | 0.12 | 0.00 | 87 | 1011.6 | |
| 20260505234102 | 54 | 0.0 | 0.0 | 0.00 | 0.12 | 0.00 | 88 | 1011.6 | |
| 20260505233022 | 54 | 0.0 | 0.0 | 0.00 | 0.12 | 0.00 | 89 | 1011.6 | |
| 20260505232043 | 55 | 0.0 | 0.0 | 0.00 | 0.12 | 0.00 | 89 | 1011.7 | |
| 20260505231024 | 55 | 0.0 | 0.0 | 0.00 | 0.12 | 0.00 | 88 | 1011.9 | |
| 20260505230041 | 55 | 0.0 | 0.0 | 0.00 | 0.12 | 0.00 | 88 | 1011.7 | |
| 20260505225110 | 55 | 0.0 | 0.0 | 0.00 | 0.12 | 0.00 | 88 | 1011.8 | |
| 20260505224035 | 55 | 0.0 | 0.0 | 0.00 | 0.12 | 0.00 | 88 | 1011.7 | |
| 20260505223110 | 55 | 0.0 | 0.0 | 0.00 | 0.12 | 0.00 | 88 | 1011.6 | |
| 20260505222031 | 55 | 0.0 | 0.0 | 0.00 | 0.12 | 0.00 | 87 | 1011.5 | |
| 20260505221054 | 55 | 0.0 | 0.0 | 0.00 | 0.12 | 0.00 | 86 | 1011.5 | |
| 20260505220119 | 55 | 0.0 | 0.0 | 0.00 | 0.12 | 0.00 | 86 | 1011.5 | |
| 20260505215034 | 55 | 0.0 | 0.0 | 0.00 | 0.12 | 0.12 | 86 | 1011.6 | |
| 20260505214103 | 55 | 0.0 | 0.0 | 0.00 | 0.12 | 0.12 | 86 | 1011.6 | |
| 20260505213022 | 54 | 0.0 | 0.0 | 0.00 | 0.12 | 0.12 | 86 | 1011.6 | |
| 20260505212044 | 54 | 0.0 | 0.0 | 0.00 | 0.12 | 0.12 | 86 | 1011.6 | |
| 20260505211111 | 54 | 0.0 | 0.0 | 0.00 | 0.12 | 0.12 | 87 | 1011.4 | |
| 20260505210030 | 54 | 0.0 | 0.0 | 0.00 | 0.12 | 0.12 | 87 | 1011.4 | |
| 20260505205054 | 54 | 0.0 | 0.0 | 0.00 | 0.12 | 0.12 | 87 | 1011.3 | |
| 20260505204118 | 54 | 0.0 | 0.0 | 0.00 | 0.12 | 0.12 | 88 | 1011.1 | |
| 20260505203039 | 54 | 0.0 | 0.0 | 0.00 | 0.12 | 0.12 | 88 | 1010.9 | |
| 20260505202103 | 54 | 0.0 | 0.0 | 0.00 | 0.12 | 0.12 | 89 | 1010.7 | |
| 20260505201033 | 54 | 0.0 | 0.0 | 0.00 | 0.12 | 0.12 | 90 | 1010.8 | |
| 20260505200103 | 54 | 0.0 | 0.0 | 0.00 | 0.12 | 0.12 | 90 | 1010.5 | |
| 20260505195034 | 54 | 0.0 | 0.0 | 0.00 | 0.12 | 0.12 | 90 | 1010.0 | |
| 20260505194102 | 54 | 0.0 | 0.0 | 0.00 | 0.12 | 0.12 | 89 | 1009.5 | |
| 20260505193022 | 54 | 0.0 | 0.0 | 0.00 | 0.12 | 0.12 | 89 | 1009.5 | |
| 20260505192043 | 54 | 0.0 | 0.0 | 0.00 | 0.12 | 0.12 | 88 | 1009.5 | |
| 20260505191111 | 55 | 0.0 | 0.0 | 0.00 | 0.12 | 0.12 | 88 | 1009.6 | |
| 20260505190036 | 55 | 0.0 | 0.0 | 0.00 | 0.12 | 0.12 | 88 | 1009.5 | |
| 20260505185111 | 55 | 0.0 | 0.0 | 0.00 | 0.12 | 0.12 | 88 | 1009.6 | |
| 20260505184036 | 55 | 0.0 | 0.0 | 0.00 | 0.12 | 0.12 | 88 | 1009.4 | |
| 20260505183111 | 56 | 0.0 | 0.0 | 0.00 | 0.12 | 0.12 | 89 | 1009.3 | |
| 20260505182031 | 57 | 0.0 | 0.0 | 0.00 | 0.12 | 0.12 | 90 | 1009.1 | |
| 20260505181055 | 58 | 0.0 | 0.0 | 0.00 | 0.12 | 0.12 | 90 | 1008.8 | |
| 20260505180031 | 59 | 0.0 | 0.0 | 0.00 | 0.12 | 0.12 | 90 | 1008.9 | |
| 20260505175054 | 59 | 0.0 | 0.0 | 0.00 | 0.12 | 0.12 | 90 | 1008.9 | |
| 20260505174119 | 58 | 0.0 | 0.0 | 0.03 | 0.12 | 0.12 | 90 | 1008.8 | |
| 20260505173034 | 58 | 0.0 | 0.0 | 0.08 | 0.12 | 0.12 | 89 | 1009.0 | |
| 20260505172102 | 58 | 0.0 | 0.0 | 0.10 | 0.12 | 0.12 | 89 | 1008.9 | |
| 20260505171033 | 58 | 0.0 | 0.0 | 0.12 | 0.12 | 0.12 | 89 | 1009.0 | |
| 20260505170104 | 58 | 0.0 | 0.0 | 0.12 | 0.12 | 0.12 | 88 | 1009.1 | |
| 20260505165034 | 58 | 0.0 | 0.0 | 0.12 | 0.12 | 0.12 | 86 | 1009.4 | |
| 20260505164104 | 59 | 0.0 | 0.0 | 0.09 | 0.09 | 0.09 | 85 | 1009.3 | |
| 20260505163022 | 60 | 0.0 | 0.0 | 0.04 | 0.04 | 0.04 | 81 | 1009.7 | |
| 20260505162041 | 62 | 34 | 0.0 | 0.9 | 0.02 | 0.02 | 0.02 | 75 | 1009.7 |
| 20260505161110 | 63 | 0.0 | 0.0 | 0.00 | 0.00 | 0.00 | 68 | 1009.5 | |
| 20260505153055 | 70 | 0.0 | 0.0 | 0.00 | 0.00 | 0.00 | 52 | 1008.2 | |
| 20260505152032 | 72 | 0.0 | 0.0 | 0.00 | 0.00 | 0.00 | 48 | 1007.9 | |
| 20260505151055 | 72 | 0.0 | 0.0 | 0.00 | 0.00 | 0.00 | 46 | 1007.8 | |
| 20260505150119 | 73 | 0.0 | 0.0 | 0.00 | 0.00 | 0.00 | 44 | 1007.7 | |
| 20260505140104 | 76 | 0.0 | 0.0 | 0.00 | 0.00 | 0.00 | 37 | 1008.0 | |
| 20260505124036 | 76 | 38 | 0.0 | 0.9 | 0.00 | 0.00 | 0.00 | 39 | 1008.4 |
| 20260505123112 | 77 | 74 | 0.9 | 1.7 | 0.00 | 0.00 | 0.00 | 38 | 1008.4 |
| 20260505122031 | 77 | 26 | 0.0 | 0.9 | 0.00 | 0.00 | 0.00 | 39 | 1008.5 |
| 20260505121056 | 77 | 0.0 | 0.0 | 0.00 | 0.00 | 0.00 | 38 | 1008.7 | |
| 20260505120120 | 76 | 29 | 0.0 | 0.9 | 0.00 | 0.00 | 0.00 | 39 | 1008.8 |
| 20260505115038 | 76 | 0.0 | 0.0 | 0.00 | 0.00 | 0.00 | 39 | 1008.8 | |
| 20260505114119 | 79 | 28 | 0.0 | 0.9 | 0.00 | 0.00 | 0.00 | 37 | 1008.9 |
| 20260505113038 | 79 | 37 | 0.0 | 0.9 | 0.00 | 0.00 | 0.00 | 36 | 1009.0 |
| 20260505112119 | 78 | 0.0 | 0.0 | 0.00 | 0.00 | 0.00 | 37 | 1009.1 | |
| 20260505111040 | 76 | 46 | 0.0 | 1.7 | 0.00 | 0.00 | 0.00 | 40 | 1009.5 |